Location: ???????
(55.7027°N, 37.3832°E)
Time: 10:57:58
(UTC+00:00)

Cosmos 1703 Rocket - Pass Details

Date: 14 April 2026
Orbit: 597 x 626 km, 82.5° (Epoch: 9 May)

Event Time Altitude Azimuth Distance (km) Brightness Sun altitude
Rises 17:16:30 0° 345° (NNW) 2,878 7.7 -6.3°
Reaches altitude 10° 17:18:45 10° 342° (NNW) 1,965 6.9 -6.6°
Maximum altitude 17:23:02 61° 263° (W) 689 4.1 -7.1°
Drops below altitude 10° 17:27:15 10° 184° (S) 1,938 5.9 -7.6°
Sets 17:29:27 0° 180° (S) 2,834 6.7 -7.9°
